Location: Silverdale
(47.6506°N, 122.6941°W)
Time: 12:22:51
(UTC+00:00)

A-11 Canister half - All Passes

Search period start: 05 October 2022 00:00
Search period end: 15 October 2022 00:00
Orbit: 1524 x 1684 km, 47.3° (Epoch: 04 October)

Date Brightness Start Highest point End Pass type
(mag) Time Alt. Az. Time Alt. Az. Time Alt. Az.
05 Oct - 00:52:00 10° WSW 01:01:20 85° S 01:10:55 10° E daylight
05 Oct - 02:57:00 10° W 03:06:25 82° SSW 03:16:07 10° ESE visible
05 Oct - 05:02:00 10° WNW 05:10:51 46° SW 05:19:58 10° SSE visible
05 Oct - 07:09:24 10° W 07:14:01 14° SW 07:18:42 10° SSW visible
05 Oct - 20:26:59 10° SSE 20:32:02 16° SE 20:37:06 10° E daylight
05 Oct - 22:26:26 10° SW 22:35:11 49° SE 22:44:03 10° ENE daylight
06 Oct - 00:30:20 10° WSW 00:39:39 84° S 00:49:11 10° E daylight
06 Oct - 02:35:20 10° W 02:44:43 83° SSW 02:54:23 10° ESE visible
06 Oct - 04:40:19 10° WNW 04:49:12 47° SW 04:58:21 10° SE visible
06 Oct - 06:47:24 10° W 06:52:25 16° SW 06:57:32 10° SSW visible
06 Oct - 20:05:50 10° SSE 20:10:28 15° SE 20:15:06 10° E daylight
06 Oct - 22:04:51 10° SW 22:13:33 47° SE 22:22:20 10° ENE daylight
07 Oct - 00:08:40 10° WSW 00:17:58 83° SSE 00:27:29 10° E daylight
07 Oct - 02:13:39 10° W 02:23:02 84° SSW 02:32:41 10° ESE visible
07 Oct - 04:18:37 10° WNW 04:27:34 49° SW 04:36:45 10° SE visible
07 Oct - 06:25:27 10° W 06:30:50 17° SW 06:36:19 10° SSW visible
07 Oct - 19:44:44 10° SSE 19:48:54 14° SE 19:53:03 10° E daylight
07 Oct - 21:43:17 10° SSW 21:51:55 45° SE 22:00:37 10° ENE daylight
07 Oct - 23:46:59 10° WSW 23:56:17 82° SSE 00:05:46 10° E daylight
08 Oct - 01:51:58 10° W 02:01:20 85° S 02:10:58 10° ESE visible
08 Oct - 03:56:56 10° WNW 04:05:54 51° SSW 04:15:08 10° SE visible
08 Oct - 06:03:32 10° W 06:09:14 18° SW 06:15:03 10° SSW visible
08 Oct - 19:23:44 10° SSE 19:27:20 13° ESE 19:30:56 10° E daylight
08 Oct - 21:21:44 10° SSW 21:30:18 44° SE 21:38:55 10° ENE daylight
08 Oct - 23:25:19 10° WSW 23:34:36 81° SSE 23:44:03 10° E daylight
09 Oct - 01:30:17 10° W 01:39:39 85° S 01:49:15 10° ESE daylight
09 Oct - 03:35:16 10° WNW 03:44:15 53° SSW 03:53:30 10° SE visible
09 Oct - 05:41:39 10° W 05:47:38 19° SW 05:53:46 10° SSW visible
09 Oct - 19:02:52 10° SE 19:05:46 12° ESE 19:08:40 10° ESE daylight
09 Oct - 21:00:11 10° SSW 21:08:41 42° SE 21:17:12 10° ENE daylight
09 Oct - 23:03:39 10° WSW 23:12:56 80° SSE 23:22:21 10° E daylight
10 Oct - 01:08:37 10° W 01:17:58 86° S 01:27:32 10° ESE daylight
10 Oct - 03:13:35 10° WNW 03:22:37 54° SSW 03:31:53 10° SE visible
10 Oct - 05:19:47 10° W 05:26:03 20° SW 05:32:26 10° S visible
10 Oct - 18:42:18 10° SE 18:44:12 11° ESE 18:46:06 10° ESE daylight
10 Oct - 20:38:38 10° SSW 20:47:03 40° SE 20:55:28 10° ENE daylight
10 Oct - 22:41:59 10° WSW 22:51:15 78° SSE 23:00:39 10° E daylight
11 Oct - 00:46:55 10° W 00:56:16 87° S 01:05:50 10° E daylight
11 Oct - 02:51:54 10° WNW 03:00:57 56° SSW 03:10:15 10° SE visible
11 Oct - 04:57:57 10° W 05:04:27 21° SW 05:11:05 10° S visible
11 Oct - 20:17:06 10° SSW 20:25:26 39° SE 20:33:46 10° ENE daylight
11 Oct - 22:20:19 10° WSW 22:29:35 77° SSE 22:38:56 10° E daylight
12 Oct - 00:25:15 10° W 00:34:35 87° S 00:44:07 10° E daylight
12 Oct - 02:30:13 10° WNW 02:39:18 58° SSW 02:48:36 10° SE visible
12 Oct - 04:36:08 10° W 04:42:50 22° SW 04:49:42 10° S visible
12 Oct - 19:55:35 10° SSW 20:03:49 37° SE 20:12:03 10° ENE daylight
12 Oct - 21:58:39 10° WSW 22:07:55 76° SSE 22:17:15 10° ENE daylight
13 Oct - 00:03:34 10° W 00:12:54 88° S 00:22:24 10° E daylight
13 Oct - 02:08:32 10° WNW 02:17:38 60° SSW 02:26:58 10° SE visible
13 Oct - 04:14:20 10° W 04:21:15 24° SW 04:28:18 10° S visible
13 Oct - 19:34:03 10° SSW 19:42:13 35° SE 19:50:18 10° ENE daylight
13 Oct - 21:36:59 10° WSW 21:46:15 74° SSE 21:55:33 10° ENE daylight
13 Oct - 23:41:52 10° W 23:51:12 88° S 00:00:42 10° E daylight
14 Oct - 01:46:51 10° WNW 01:55:59 61° SSW 02:05:19 10° SE visible
14 Oct - 03:52:32 10° W 03:59:39 25° SW 04:06:53 10° S visible
14 Oct - 19:12:33 10° SSW 19:20:35 34° SE 19:28:35 10° ENE daylight
14 Oct - 21:15:20 10° WSW 21:24:35 73° SSE 21:33:51 10° ENE daylight
14 Oct - 23:20:11 10° W 23:29:32 88° S 23:38:59 10° E daylight
